RH
42 41 50 68 62 60 100 100 100 100 100 100 100 83 55 26 17 17 17 17 18 19 20 24 40 53 57 51 46 44 43 41
52 44 46 72 58 78 100 100 100 100 97 100 86 60 29 16 16 16 17 18 20 32 44 43 42 40 35 35 35 37 38 38
37 39 38 42 76 86 65 71 75 74 43 32 20 17 17 16 16 17 21 39 47 38 32 32 33 34 33 30 29 28 28 29
29 32 32 34 37 36 32 29 23 19 17 18 17 16 16 18 30 43 41 38 37 36 36 35 33 30 28 28 30 30 31 34
21 21 20 19 19 18 18 17 16 15 15 15 17 19 29 40 37 34 35 37 37 35 33 32 29 32 38 41 45 50 54 48
23 22 21 17 16 16 17 16 15 16 17 22 29 36 36 35 38 41 42 46 49 39 36 42 46 48 51 47 44 44 46 49
32 35 29 26 39 42 28 27 34 37 39 43 44 45 47 50 57 55 45 41 44 55 58 56 50 47 45 46 47 47 43 36
39 38 36 35 35 34 37 41 41 44 49 50 48 48 50 46 41 43 53 62 59 62 61 57 53 42 42 38 39 38 34 32
34 36 40 39 46 49 54 52 50 48 46 46 49 54 53 56 64 64 65 67 59 51 45 41 36 34 34 36 32 27 24 17
43 41 40 45 49 53 52 51 53 52 51 54 63 68 62 55 55 64 56 46 46 43 41 38 36 40 35 30 23 16 10 8
40 41 40 40 42 42 42 46 47 48 52 57 56 55 56 60 61 55 51 51 51 47 45 42 40 29 23 15 9 7 6 6
41 44 45 44 42 44 46 47 50 55 61 61 56 59 59 54 50 48 48 48 52 48 46 35 22 18 11 7 7 6 5 4
40 41 44 42 39 39 45 51 54 54 52 60 63 58 48 53 58 61 62 56 47 38 28 21 15 9 7 7 5 4 3 3
34 35 38 39 42 51 57 57 59 61 64 64 60 56 63 76 70 61 58 41 30 23 19 14 8 7 6 5 4 3 3 3
49 48 51 66 72 64 60 66 65 66 66 64 65 66 74 72 61 53 36 24 21 14 10 8 7 6 4 4 4 3 3 3
78 79 73 73 70 64 65 64 67 67 65 66 68 78 81 70 50 35 27 19 13 10 8 7 6 4 4 4 4 4 4 4
73 72 68 65 61 59 62 67 66 66 68 79 86 83 72 55 42 31 18 13 9 8 7 5 4 4 4 4 4 4 4 4
61 58 56 56 56 63 66 70 61 70 80 86 87 74 66 49 33 20 13 9 8 7 5 4 4 4 5 5 4 4 5 5
52 56 57 60 63 71 69 69 78 82 94 93 70 62 51 35 21 13 8 9 8 6 5 4 4 5 5 5 5 5 5 5
Wind_Speed
58 49 47 45 45 40 36 43 45 54 56 64 69 73 68 71 68 67 69 70 71 74 76 74 73 74 75 77 78 80 81 82
46 45 43 41 48 35 40 46 55 59 61 65 68 74 77 74 71 72 74 75 76 76 75 76 76 77 80 81 82 85 89 91
45 46 45 42 39 45 49 54 57 59 64 69 72 72 73 73 75 77 77 76 77 79 79 79 81 84 88 89 91 92 95 98
41 43 46 47 50 54 56 56 56 58 58 62 66 69 72 74 74 75 77 80 81 82 85 89 91 93 96 100 102 104 105 108
38 43 46 46 47 46 49 52 53 54 58 62 65 69 72 73 75 79 80 81 86 90 93 96 100 104 109 112 114 117 117 118
44 45 46 45 46 48 50 51 54 58 61 65 68 70 72 77 79 82 84 87 91 97 101 106 110 111 115 118 120 120 121 122
36 38 39 39 40 47 51 53 56 60 62 65 69 72 74 77 79 83 88 94 98 103 109 113 116 119 122 123 124 125 124 123
39 42 41 42 47 50 53 55 58 61 64 67 70 73 76 80 85 91 94 98 102 108 113 116 121 124 125 125 124 123 123 122
44 46 49 49 51 52 54 56 59 62 66 69 72 75 79 83 88 94 99 105 109 115 120 124 125 125 125 123 123 122 121 120
43 45 47 49 52 55 58 61 63 65 68 70 75 78 83 87 93 99 106 111 115 119 124 127 127 124 123 120 121 119 117 113
45 47 49 51 54 57 60 62 64 66 68 72 77 82 88 93 101 107 112 118 122 125 126 125 126 122 121 119 114 110 102 98
47 48 51 54 56 57 59 61 64 66 71 75 81 87 93 99 106 111 117 122 123 126 125 121 119 117 117 111 105 101 94 89
50 51 52 55 57 59 61 62 65 70 76 82 88 94 101 107 114 120 125 125 126 124 118 116 114 111 108 102 97 91 85 80
55 54 54 56 57 59 60 64 70 76 83 90 98 104 109 113 120 126 126 124 122 117 115 111 107 103 97 92 88 82 79 76
58 57 56 56 57 60 65 71 78 85 92 99 105 108 114 118 124 128 123 119 116 111 106 103 98 93 89 84 81 77 74 71
58 60 59 60 63 68 74 79 86 93 100 105 109 114 120 125 130 126 123 118 112 105 102 96 90 86 81 78 75 73 70 68
58 60 63 66 70 75 81 86 92 100 105 110 115 121 126 132 129 125 120 115 106 99 94 89 84 79 75 74 71 69 66 64
60 62 65 70 76 80 85 93 100 105 110 115 121 125 132 133 127 123 119 112 104 93 85 81 77 72 70 70 68 64 61 58
63 67 72 77 80 85 93 99 106 111 115 121 126 131 132 126 124 118 112 105 96 89 82 76 71 68 67 65 63 58 55 53
Wind_Direction
278 274 268 270 270 271 260 262 266 267 269 274 278 284 287 288 288 287 288 290 290 291 291 290 289 290 292 290 288 288 287 288
268 269 265 264 273 263 252 255 261 264 270 273 276 282 285 285 287 289 291 291 291 290 289 290 290 289 289 288 287 287 287 286
267 266 264 267 263 261 259 259 263 267 275 276 279 280 283 287 289 290 292 292 289 289 293 293 292 292 289 287 286 285 285 284
274 274 274 270 268 271 273 272 273 278 280 281 282 285 287 289 291 291 290 290 292 292 290 289 289 289 289 292 292 291 291 291
277 274 274 275 273 277 277 276 277 281 282 283 285 286 288 288 288 290 291 290 289 289 291 291 293 296 298 299 299 299 297 296
279 282 282 283 283 286 283 282 282 282 283 285 285 286 287 290 293 294 296 297 298 298 298 299 300 302 302 300 299 297 296 295
296 292 292 292 290 283 284 288 287 286 287 289 291 293 294 296 296 297 298 300 302 301 302 302 302 302 301 300 299 299 297 295
299 298 295 291 289 290 291 290 290 292 292 292 294 296 296 297 300 302 302 301 302 302 302 301 302 302 301 301 300 299 298 297
304 304 301 299 297 297 297 298 297 297 299 300 299 300 301 302 301 301 302 302 300 301 301 300 301 302 302 302 301 300 298 297
300 298 298 300 299 299 299 299 300 300 302 303 303 302 300 299 300 299 298 299 300 301 303 304 305 305 304 302 300 299 297 296
305 302 299 298 298 298 298 299 300 301 301 299 299 299 299 300 300 300 302 305 306 307 308 308 307 306 304 302 301 299 300 300
302 302 302 302 301 301 302 301 300 298 298 298 298 299 302 303 303 305 307 308 308 310 309 308 307 306 304 304 304 302 302 299
301 301 301 302 302 302 301 299 298 297 298 301 301 302 305 309 311 313 313 312 311 310 311 310 308 307 305 305 304 302 301 300
304 303 303 304 303 303 303 303 303 305 305 305 308 311 312 313 313 315 314 312 312 313 314 311 308 306 306 304 304 302 302 301
310 309 308 306 306 305 305 306 308 308 309 311 312 313 314 313 314 315 314 314 315 315 314 311 309 308 306 306 305 305 304 304
309 309 308 307 307 307 307 308 310 311 311 311 313 314 314 316 317 318 318 317 318 318 314 312 310 309 308 307 306 306 306 305
308 308 309 309 309 309 310 311 312 312 313 315 314 315 317 318 320 319 318 320 320 319 315 313 311 311 310 308 307 308 307 304
309 308 308 308 309 311 314 313 315 316 316 316 317 318 319 320 319 320 321 322 321 317 315 314 313 313 311 309 309 309 308 307
310 311 311 312 313 314 315 316 317 318 317 317 320 320 321 319 319 321 322 322 320 317 317 316 315 314 312 311 310 310 309 306